Home > Weather > Resolute Bay > Past weeks

Flag for Canada Weather for the Past 2 Weeks in Resolute Bay, Nunavut, Canada

Now
-31 °F

Ice fog.


Feels Like: -57 °F
Forecast: N/A
Wind: 13 mph from Northwest

Location: Resolute

Current Time: Feb 9, 2016 at 3:16:50 PM

Latest Report: Feb 9, 2016 at 3:00 PM


Visibility: 3 mi

Pressure: 30.13 "Hg

Humidity: 67%

Dew point: -38 °F

Location of Resolute BayLocation

Historic Weather in Resolute Bay — Graph

°F

Resolute Bay Temperature Yesterday

Maximum temperature yesterday: -27 °F (at 5:00 PM)
Minimum temperature yesterday: -33 °F (at 8:00 PM)
Average temperature yesterday: -30 °F

High & Low Weather Summary for the Past Weeks

 TemperatureHumidityPressure
High-6 °F (Feb 2, 1:00 AM)84% (Jan 31, 11:00 AM)30.17 "Hg (Jan 31, 11:00 AM)
Low-38 °F (Jan 25, 2:00 PM)38% (Feb 7, 6:00 PM)29.37 "Hg (Jan 26, 7:00 PM)
Average-23 °F73%29.88 "Hg
* Reported Jan 25 2:00 PM — Feb 9 2:00 PM, Resolute Bay, Weather by CustomWeather, © 2016

Note: Actual official high and low records may vary slightly from our data, if they occured in-between our weather recording intervals... More about our weather records

Advertising

Resolute Bay Weather History for the Previous 24 Hours

 ConditionsComfort  
Time TempWeatherWind HumidityBarometerVisibility
2:00 PM
Tue, Feb 9
-33 °FFog.15 mph66%30.14 "Hg10 mi
1:00 PM-31 °FFog.18 mph67%30.14 "Hg10 mi
12:00 PM-33 °FExtremely cold.14 mph66%30.12 "Hg3 mi
11:00 AM-27 °FFog.17 mph67%30.15 "Hg8 mi
10:03 AM-27 °FPassing clouds.12 mph74%30.14 "Hg15 mi
9:00 AM-29 °FSnow flurries. Passing clouds.12 mph67%30.14 "Hg15 mi
8:00 AM-29 °FSnow flurries. Passing clouds.12 mph67%30.16 "Hg15 mi
7:00 AM-31 °FSnow flurries. Clear.13 mph67%30.16 "Hg15 mi
6:00 AM-35 °FSnow flurries. Clear.12 mph73%30.15 "Hg15 mi
5:00 AM-35 °FSnow flurries. Clear.10 mph66%30.14 "Hg15 mi
4:00 AM-36 °FSnow flurries. Clear.12 mph73%30.14 "Hg15 mi
3:00 AM-35 °FSnow flurries. Clear.10 mph66%30.13 "Hg15 mi
2:00 AM-35 °FSnow flurries. Clear.10 mph66%30.13 "Hg15 mi
1:00 AM-35 °FSnow flurries. Clear.7 mph66%30.11 "Hg15 mi
12:00 AM-35 °FSnow flurries. Clear.10 mph73%30.11 "Hg15 mi
11:00 PM
Mon, Feb 8
-33 °FSnow flurries. Clear.17 mph66%30.10 "Hg15 mi
10:00 PM-33 °FSnow flurries. Clear.13 mph74%30.10 "Hg15 mi
9:00 PM-33 °FSnow flurries. Clear.10 mph74%30.09 "Hg15 mi
8:00 PM-33 °FSnow flurries. Ice fog.8 mph74%30.09 "Hg3 mi
7:00 PM-29 °FSnow flurries. Clear.12 mph67%30.09 "Hg15 mi
6:00 PM-27 °FSnow flurries. Fog.9 mph67%30.08 "Hg15 mi
5:00 PM-27 °FSnow flurries. Fog.23 mph74%30.07 "Hg8 mi
4:00 PM-29 °FSnow flurries. Ice fog.9 mph74%30.06 "Hg4 mi
3:00 PM-29 °FIce fog.13 mph67%30.04 "Hg2 mi
Weather by CustomWeather, © 2016

See weather overviewHow to use our weather pages